DW7888 Weather Reports


time (UTC)temp
C
wind
direction
speed
KPH
gust
KPH
rain 1hr
cm
rain 24hr
cm
rain mn
cm
humidity
%
barometer
mb
20260506073509 18 117 1.6 22.5 0.00 0.00 0.00 74 1012.5
20260506073004 18 107 4.8 22.5 0.00 0.00 0.00 73 1012.4
20260506072513 18 165 1.6 14.5 0.00 0.00 0.00 73 1012.4
20260506072010 18 207 1.6 9.7 0.00 0.00 0.00 73 1012.5
20260506071503 18 101 1.6 9.7 0.00 0.00 0.00 72 1012.5
20260506071008 18 198 1.6 9.7 0.00 0.00 0.00 72 1012.5
20260506070506 18 233 3.2 9.7 0.00 0.00 0.00 72 1012.5
20260506062511 18 155 3.2 14.5 0.00 0.00 0.00 71 1012.8
20260506062009 18 166 3.2 14.5 0.00 0.00 0.00 70 1012.9
20260506061504 18 157 4.8 11.3 0.00 0.00 0.00 70 1012.8
20260506061011 18 126 1.6 14.5 0.00 0.00 0.00 70 1012.7
20260506060507 19 199 3.2 14.5 0.00 0.00 0.00 70 1012.8
20260506051009 20 128 4.8 14.5 0.00 0.00 0.00 68 1013.2
20260506050508 20 153 3.2 12.9 0.00 0.00 0.00 68 1013.1
20260506045004 20 212 3.2 11.3 0.00 0.00 0.00 67 1013.3
20260506044511 20 180 1.6 11.3 0.00 0.00 0.00 66 1013.4
20260506044017 20 158 3.2 11.3 0.00 0.00 0.00 66 1013.4
20260506043503 20 131 1.6 9.7 0.00 0.00 0.00 65 1013.5
20260506043012 20 103 3.2 14.5 0.00 0.00 0.00 65 1013.5
20260506042506 20 344 1.6 14.5 0.00 0.00 0.00 64 1013.5
20260506042007 20 117 4.8 14.5 0.00 0.00 0.00 64 1013.4
20260506041525 20 169 3.2 11.3 0.00 0.00 0.00 63 1013.4
20260506041009 21 145 1.6 11.3 0.00 0.00 0.00 62 1013.5
20260506040502 21 101 1.6 11.3 0.00 0.00 0.00 62 1013.5
20260506040014 21 206 3.2 11.3 0.00 0.00 0.00 61 1013.4
20260506035508 21 139 1.6 19.3 0.00 0.00 0.00 61 1013.4
20260506035004 21 189 0.0 20.9 0.00 0.00 0.00 60 1013.3
20260506034515 21 156 6.4 20.9 0.00 0.00 0.00 60 1013.4
20260506034009 21 112 1.6 14.5 0.00 0.00 0.00 60 1013.3
20260506033503 21 211 1.6 14.5 0.00 0.00 0.00 60 1013.3
20260506033017 21 71 4.8 12.9 0.00 0.00 0.00 60 1013.4
20260506032513 21 181 3.2 12.9 0.00 0.00 0.00 59 1013.3
20260506032007 21 65 3.2 11.3 0.00 0.00 0.00 60 1013.4
20260506031523 21 142 1.6 12.9 0.00 0.00 0.00 59 1013.4
20260506031009 21 107 3.2 12.9 0.00 0.00 0.00 59 1013.3
20260506030508 21 186 3.2 9.7 0.00 0.00 0.00 58 1013.3
20260506030023 21 200 1.6 8.0 0.00 0.00 0.00 58 1013.3
20260506025508 21 148 0.0 6.4 0.00 0.00 0.00 58 1013.3
20260506025009 21 136 0.0 11.3 0.00 0.00 0.00 58 1013.3
20260506024520 21 111 3.2 11.3 0.00 0.00 0.00 58 1013.3
20260506024010 21 175 0.0 6.4 0.00 0.00 0.00 57 1013.4
20260506023505 21 162 1.6 9.7 0.00 0.00 0.00 57 1013.4
20260506023018 22 119 0.0 9.7 0.00 0.00 0.00 57 1013.3
20260506022509 22 192 1.6 12.9 0.00 0.00 0.00 57 1013.4
20260506022004 22 143 1.6 12.9 0.00 0.00 0.00 56 1013.3
20260506021520 22 186 0.0 8.0 0.00 0.00 0.00 56 1013.3
20260506021010 22 163 1.6 11.3 0.00 0.00 0.00 55 1013.3
20260506020510 22 110 3.2 14.5 0.00 0.00 0.00 55 1013.3
20260506020024 22 163 3.2 14.5 0.00 0.00 0.00 55 1013.3
20260506015510 22 145 3.2 9.7 0.00 0.00 0.00 54 1013.2
20260506015006 22 127 0.0 8.0 0.00 0.00 0.00 54 1013.2
20260506014532 22 136 1.6 12.9 0.00 0.00 0.00 54 1013.1
20260506014009 22 114 1.6 12.9 0.00 0.00 0.00 54 1013.1
20260506013506 22 71 0.0 14.5 0.00 0.00 0.00 54 1013.1
20260506013028 22 189 0.0 14.5 0.00 0.00 0.00 54 1013.0
20260506012510 22 131 1.6 12.9 0.00 0.00 0.00 53 1013.0
20260506012008 22 117 0.0 11.3 0.00 0.00 0.00 53 1012.9
20260506011528 23 184 0.0 11.3 0.00 0.00 0.00 52 1012.7
20260506011008 23 148 1.6 12.9 0.00 0.00 0.00 52 1012.7
20260506010505 23 112 0.0 12.9 0.00 0.00 0.00 51 1012.7
20260506010027 23 157 1.6 11.3 0.00 0.00 0.00 52 1012.6
20260506005510 23 150 1.6 11.3 0.00 0.00 0.00 51 1012.5
20260506005010 23 192 1.6 12.9 0.00 0.00 0.00 50 1012.5
20260506004535 23 150 3.2 12.9 0.00 0.00 0.00 50 1012.4
20260506004010 23 157 3.2 11.3 0.00 0.00 0.00 50 1012.4
20260506003507 23 173 1.6 11.3 0.00 0.00 0.00 50 1012.3
20260506003024 23 168 3.2 9.7 0.00 0.00 0.00 49 1012.2
20260506002511 23 157 1.6 9.7 0.00 0.00 0.00 49 1012.2
20260506002007 23 136 1.6 9.7 0.00 0.00 0.00 49 1012.3
20260506001524 23 175 0.0 9.7 0.00 0.00 0.00 49 1012.2
20260506001008 24 115 3.2 9.7 0.00 0.00 0.00 48 1012.2
20260506000509 24 169 0.0 8.0 0.00 0.00 0.00 48 1012.1
20260506000034 24 192 1.6 8.0 0.00 0.00 0.00 47 1012.1
20260505235511 24 189 0.0 6.4 0.00 0.00 0.00 47 1012.1
20260505235003 25 187 0.0 14.5 0.00 0.00 0.00 47 1012.1
20260505234512 25 119 0.0 14.5 0.00 0.00 0.00 46 1012.1
20260505234003 25 190 3.2 14.5 0.00 0.00 0.00 45 1012.0
20260505233506 25 169 3.2 8.0 0.00 0.00 0.00 45 1011.9
20260505233004 25 188 1.6 8.0 0.00 0.00 0.00 45 1012.0
20260505232509 25 322 1.6 12.9 0.00 0.00 0.00 45 1011.9
20260505232004 25 164 1.6 12.9 0.00 0.00 0.00 45 1011.9
20260505231506 25 150 1.6 4.8 0.00 0.00 0.00 44 1012.1
20260505231004 25 74 0.0 8.0 0.00 0.00 0.00 44 1011.9
20260505230503 25 130 1.6 6.4 0.00 0.00 0.00 44 1011.9
20260505230005 25 150 0.0 4.8 0.00 0.00 0.00 43 1011.9
20260505225506 25 183 0.0 4.8 0.00 0.00 0.00 43 1012.0
20260505225004 26 117 0.0 11.3 0.00 0.00 0.00 42 1012.0
20260505224507 26 117 0.0 11.3 0.00 0.00 0.00 42 1012.1
20260505224007 26 211 3.2 14.5 0.00 0.00 0.00 41 1012.2
20260505223505 26 123 3.2 14.5 0.00 0.00 0.00 40 1012.1
20260505223009 26 134 6.4 14.5 0.00 0.00 0.00 40 1012.0
20260505222507 26 207 1.6 8.0 0.00 0.00 0.00 41 1012.1
20260505222005 26 212 1.6 19.3 0.00 0.00 0.00 41 1012.0
20260505221508 26 138 3.2 19.3 0.00 0.00 0.00 39 1011.9
20260505221006 26 94 3.2 19.3 0.00 0.00 0.00 39 1011.8
20260505220503 26 143 1.6 14.5 0.00 0.00 0.00 38 1011.9
20260505220023 26 190 3.2 14.5 0.00 0.00 0.00 38 1011.9
20260505215510 26 100 1.6 8.0 0.00 0.00 0.00 37 1011.9
20260505215004 26 205 3.2 11.3 0.00 0.00 0.00 37 1012.0
20260505214514 27 122 3.2 14.5 0.00 0.00 0.00 35 1011.9
20260505214010 26 80 1.6 14.5 0.00 0.00 0.00 36 1011.9
20260505213502 26 179 1.6 12.9 0.00 0.00 0.00 37 1012.0
20260505213012 26 182 0.0 14.5 0.00 0.00 0.00 36 1011.9
20260505212509 26 225 1.6 16.1 0.00 0.00 0.00 34 1011.9
20260505212002 26 203 3.2 16.1 0.00 0.00 0.00 34 1012.0
20260505211512 27 159 3.2 16.1 0.00 0.00 0.00 34 1012.1
20260505211009 27 84 4.8 16.1 0.00 0.00 0.00 33 1012.0
20260505210503 27 144 3.2 14.5 0.00 0.00 0.00 35 1012.0
20260505210015 27 107 3.2 14.5 0.00 0.00 0.00 35 1012.0
20260505205515 27 111 6.4 19.3 0.00 0.00 0.00 34 1012.0
20260505205006 27 236 1.6 19.3 0.00 0.00 0.00 33 1011.9
20260505204524 27 166 4.8 14.5 0.00 0.00 0.00 33 1011.9
20260505204008 27 206 1.6 14.5 0.00 0.00 0.00 35 1011.8
20260505203502 27 159 3.2 14.5 0.00 0.00 0.00 34 1011.8
20260505203016 27 146 0.0 16.1 0.00 0.00 0.00 34 1011.8
20260505202509 27 125 3.2 16.1 0.00 0.00 0.00 33 1011.9
20260505202006 28 211 4.8 16.1 0.00 0.00 0.00 32 1011.9
20260505201517 28 101 4.8 16.1 0.00 0.00 0.00 33 1011.9
20260505201009 28 198 6.4 16.1 0.00 0.00 0.00 33 1011.9
20260505200506 28 152 6.4 17.7 0.00 0.00 0.00 35 1011.8
20260505200017 28 34 3.2 22.5 0.00 0.00 0.00 34 1011.9
20260505195511 28 177 1.6 22.5 0.00 0.00 0.00 34 1012.0
20260505195003 28 209 4.8 17.7 0.00 0.00 0.00 35 1012.1
20260505194519 28 154 3.2 17.7 0.00 0.00 0.00 34 1012.2
20260505194017 28 136 6.4 19.3 0.00 0.00 0.00 34 1012.3
20260505193503 28 195 3.2 19.3 0.00 0.00 0.00 33 1012.2
20260505193038 28 153 1.6 20.9 0.00 0.00 0.00 32 1012.4
20260505192509 28 204 1.6 20.9 0.00 0.00 0.00 34 1012.5
20260505192005 28 261 4.8 16.1 0.00 0.00 0.00 32 1012.5
20260505191519 28 186 3.2 19.3 0.00 0.00 0.00 34 1012.5
20260505191009 28 184 3.2 19.3 0.00 0.00 0.00 34 1012.6
20260505190506 28 227 3.2 19.3 0.00 0.00 0.00 34 1012.7
20260505190030 29 285 3.2 11.3 0.00 0.00 0.00 37 1012.9
20260505185515 28 121 4.8 12.9 0.00 0.00 0.00 37 1012.8
20260505185007 28 190 0.0 12.9 0.00 0.00 0.00 39 1013.0
20260505184525 28 11 1.6 11.3 0.00 0.00 0.00 33 1013.1
20260505184004 28 252 3.2 17.7 0.00 0.00 0.00 36 1013.2
20260505183507 28 204 4.8 17.7 0.00 0.00 0.00 31 1013.2
20260505183036 28 109 6.4 16.1 0.00 0.00 0.00 34 1013.2
20260505182503 28 173 4.8 16.1 0.00 0.00 0.00 33 1013.2
20260505182007 28 352 3.2 16.1 0.00 0.00 0.00 36 1013.4
20260505181524 27 174 4.8 14.5 0.00 0.00 0.00 35 1013.4
20260505181006 28 130 3.2 19.3 0.00 0.00 0.00 34 1013.5
20260505180510 28 180 3.2 19.3 0.00 0.00 0.00 32 1013.7
20260505180033 28 123 4.8 16.1 0.00 0.00 0.00 36 1013.5
20260505175506 28 163 0.0 11.3 0.00 0.00 0.00 35 1013.6
20260505175008 27 111 4.8 11.3 0.00 0.00 0.00 33 1013.6
20260505174531 28 208 3.2 12.9 0.00 0.00 0.00 36 1013.6
20260505174004 27 107 1.6 14.5 0.00 0.00 0.00 38 1013.7
20260505173507 27 93 4.8 16.1 0.00 0.00 0.00 34 1013.7
20260505173035 27 140 0.0 16.1 0.00 0.00 0.00 36 1013.7
20260505172503 27 244 4.8 17.7 0.00 0.00 0.00 42 1013.7
20260505172012 27 131 3.2 17.7 0.00 0.00 0.00 39 1013.9
20260505171529 27 168 4.8 16.1 0.00 0.00 0.00 39 1013.9
20260505171003 27 164 3.2 16.1 0.00 0.00 0.00 45 1013.9
20260505170510 27 61 3.2 16.1 0.00 0.00 0.00 47 1014.1
20260505170026 27 157 3.2 9.7 0.00 0.00 0.00 43 1014.1
20260505165504 26 42 1.6 12.9 0.00 0.00 0.00 46 1014.1
20260505165006 26 197 1.6 12.9 0.00 0.00 0.00 48 1014.3
20260505164533 26 132 4.8 12.9 0.00 0.00 0.00 43 1014.3
20260505164006 26 126 0.0 11.3 0.00 0.00 0.00 45 1014.4
20260505163508 26 157 3.2 11.3 0.00 0.00 0.00 46 1014.3
20260505163027 26 80 1.6 9.7 0.00 0.00 0.00 45 1014.5
20260505162507 25 125 3.2 12.9 0.00 0.00 0.00 47 1014.4
20260505162012 26 84 0.0 12.9 0.00 0.00 0.00 46 1014.5
20260505161527 26 134 1.6 12.9 0.00 0.00 0.00 49 1014.6
20260505161004 26 186 0.0 6.4 0.00 0.00 0.00 52 1014.6
20260505160508 25 157 1.6 6.4 0.00 0.00 0.00 49 1014.8
20260505153032 24 63 1.6 9.7 0.00 0.00 0.00 50 1015.1
20260505152506 25 126 0.0 11.3 0.00 0.00 0.00 50 1015.1
20260505152011 24 225 1.6 12.9 0.00 0.00 0.00 54 1015.2
20260505151528 23 159 4.8 12.9 0.00 0.00 0.00 50 1015.1
20260505151008 23 165 3.2 12.9 0.00 0.00 0.00 51 1015.0
20260505150513 23 190 1.6 9.7 0.00 0.00 0.00 54 1015.2
20260505140509 21 190 1.6 8.0 0.00 0.00 0.00 60 1015.3
20260505125005 17 146 0.0 4.8 0.00 0.00 0.00 69 1015.3
20260505124507 17 225 0.0 4.8 0.00 0.00 0.00 70 1015.2
20260505124004 17 78 0.0 8.0 0.00 0.00 0.00 71 1015.2
20260505123504 16 42 0.0 8.0 0.00 0.00 0.00 70 1015.2
20260505123008 16 192 0.0 6.4 0.00 0.00 0.00 72 1015.3
20260505122504 16 76 0.0 6.4 0.00 0.00 0.00 72 1015.3
20260505122006 16 342 0.0 6.4 0.00 0.00 0.00 74 1015.2
20260505121512 16 92 0.0 6.4 0.00 0.00 0.00 73 1015.1
20260505121001 16 360 0.0 9.7 0.00 0.00 0.00 74 1015.1
20260505120508 15 345 0.0 9.7 0.00 0.00 0.00 75 1015.0
20260505120010 15 62 0.0 4.8 0.00 0.00 0.00 74 1015.0
20260505115507 15 292 0.0 4.8 0.00 0.00 0.00 75 1015.0
20260505115005 15 200 0.0 6.4 0.00 0.00 0.00 75 1014.9
20260505114509 15 37 0.0 6.4 0.00 0.00 0.00 75 1014.8
20260505114006 15 184 0.0 8.0 0.00 0.00 0.00 76 1014.7
20260505113505 15 82 0.0 8.0 0.00 0.00 0.00 76 1014.7
20260505113010 15 132 0.0 6.4 0.00 0.00 0.00 76 1014.7
20260505112504 15 201 1.6 11.3 0.00 0.00 0.00 76 1014.5
20260505112004 15 220 1.6 14.5 0.00 0.00 0.00 75 1014.4
20260505111517 15 159 1.6 14.5 0.00 0.00 0.00 76 1014.3
20260505111005 15 179 3.2 11.3 0.00 0.00 0.00 76 1014.4
20260505110507 15 139 1.6 9.7 0.00 0.00 0.00 76 1014.3
20260505102008 15 192 0.0 8.0 0.00 0.00 0.00 76 1014.1
20260505101512 14 175 1.6 8.0 0.00 0.00 0.00 76 1014.1
20260505101005 14 147 0.0 4.8 0.00 0.00 0.00 76 1014.1
20260505100506 14 146 0.0 0.0 0.00 0.00 0.00 76 1014.1
20260505100015 14 146 0.0 0.0 0.00 0.00 0.00 75 1014.1
20260505095504 15 76 0.0 0.0 0.00 0.00 0.00 75 1014.1
20260505095004 15 78 0.0 3.2 0.00 0.00 0.00 75 1014.1
20260505094514 15 182 0.0 3.2 0.00 0.00 0.00 74 1014.2
20260505094009 15 123 0.0 3.2 0.00 0.00 0.00 74 1014.1
20260505093511 15 62 0.0 3.2 0.00 0.00 0.00 73 1014.1
20260505093015 15 116 0.0 3.2 0.00 0.00 0.00 73 1014.0
20260505092508 15 194 0.0 4.8 0.00 0.00 0.00 73 1014.0
20260505092009 15 86 0.0 9.7 0.00 0.00 0.00 73 1014.0
20260505091522 15 123 0.0 9.7 0.00 0.00 0.00 72 1014.0
20260505091007 15 188 1.6 9.7 0.00 0.00 0.00 72 1013.9
20260505090505 15 188 0.0 3.2 0.00 0.00 0.00 72 1013.9
20260505090026 15 192 0.0 4.8 0.00 0.00 0.00 71 1013.9
20260505085505 15 169 0.0 6.4 0.00 0.00 0.00 71 1013.9
20260505085005 15 195 0.0 8.0 0.00 0.00 0.00 71 1013.9
20260505084520 15 110 0.0 8.0 0.00 0.00 0.00 71 1013.9
20260505084012 15 164 0.0 3.2 0.00 0.00 0.00 71 1013.9
20260505083507 15 181 0.0 3.2 0.00 0.00 0.00 71 1013.9
20260505083016 15 196 0.0 3.2 0.00 0.00 0.00 71 1014.0
20260505082506 16 173 0.0 3.2 0.00 0.00 0.00 71 1013.9
20260505082010 16 161 0.0 3.2 0.00 0.00 0.00 70 1013.9
20260505081521 16 157 0.0 4.8 0.00 0.00 0.00 70 1013.9
20260505081008 16 134 0.0 4.8 0.00 0.00 0.00 69 1013.9
20260505080508 16 126 0.0 6.4 0.00 0.00 0.00 69 1013.8
20260505080041 16 157 0.0 11.3 0.00 0.00 0.00 69 1013.9
20260505075506 16 179 1.6 11.3 0.00 0.00 0.00 68 1013.8
20260505075006 16 126 0.0 17.7 0.00 0.00 0.00 68 1013.8
20260505074519 16 161 0.0 17.7 0.00 0.00 0.00 68 1013.8
20260505074006 16 167 1.6 8.0 0.00 0.00 0.00 68 1013.8